Weather History for KBVU - August, 2013

Change the Weather History Date:

Saturday, August 3, 2013

  Actual Average (KLAS) Record (KLAS)
Temperature  
Mean Temperature 86 °F 92 °F  
Max Temperature 102 °F 104 °F 116 °F (1979)
Min Temperature 71 °F 81 °F 54 °F (1937)
Degree Days  
Heating Degree Days 0 0  
Month to date heating degree days 0  
Since 1 June heating degree days 1  
Since 1 July heating degree days 0  
Cooling Degree Days 22 27  
Month to date cooling degree days 82  
Year to date cooling degree days 2136  
Since 1 June cooling degree days 1586  
Growing Degree Days 36 (Base 50)    
Moisture  
Dew Point 32 °F    
Average Humidity 15    
Maximum Humidity 31    
Minimum Humidity 7    
Precipitation  
Precipitation 0.00 in 0.01 in 0.28 in (2014)
Month to date precipitation 0.04  
Year to date precipitation 2.52  
Snow  
Snow 0.00 in 0.00 in 0.00 in ()
Month to date snowfall 0.0  
Since 1 June snowfall 0.0  
Since 1 July snowfall 0.0  
Snow Depth -    
Sea Level Pressure  
Sea Level Pressure 29.91 in    
Wind  
Wind Speed 6 mph (SSE)    
Max Wind Speed 22 mph    
Max Gust Speed 29 mph    
Visibility 10 miles    
Events      
T = Trace of Precipitation, MM = Missing Value Source: NWS Daily Summary

Daily Weather History Graph

Daily Weather History Graph

Search for Another Location

Airport or City:

Trip Planner

Search our weather history database for the weather conditions in past years. The results will help you decide how hot, cold, wet, or windy it might be!

Date:

Astronomy

Aug. 03, 2013 Rise Set
Actual Time 5:48 AM PDT 7:41 PM PDT
Civil Twilight 5:20 AM PDT 8:09 PM PDT
Nautical Twilight 4:46 AM PDT 8:43 PM PDT
Astronomical Twilight 4:10 AM PDT 9:20 PM PDT
Moon 3:02 AM PDT 5:26 PM PDT
Length of Visible Light 14h 49m
Length of Day
13h 53m
Waning Crescent, 9% of the Moon is Illuminated
Aug 3
Waning Crescent
Aug 6
New
Aug 14
First Quarter
Aug 20
Full
Aug 28
Last Quarter

Hourly Weather History & Observations

Time (PDT) Temp. Dew Point Humidity Pressure Visibility Wind Dir Wind Speed Gust Speed Precip Events Conditions
12:15 AM 80.6 °F 23.0 °F 12% 29.89 in 10.0 mi Calm Calm - N/A   Clear
12:35 AM 77.0 °F 35.6 °F 22% 29.89 in 10.0 mi Calm Calm - N/A   Clear
12:55 AM 77.0 °F 37.4 °F 24% 29.89 in 10.0 mi Calm Calm - N/A   Clear
1:15 AM 78.8 °F 37.4 °F 23% 29.89 in 10.0 mi Calm Calm - N/A   Clear
1:35 AM 75.2 °F 35.6 °F 24% 29.88 in 10.0 mi NNE 3.5 mph - N/A   Clear
1:55 AM 75.2 °F 35.6 °F 24% 29.88 in 10.0 mi North 3.5 mph - N/A   Clear
2:15 AM 75.2 °F 39.2 °F 27% 29.88 in 10.0 mi Calm Calm - N/A   Clear
2:35 AM 75.2 °F 41.0 °F 29% 29.88 in 10.0 mi Calm Calm - N/A   Clear
2:55 AM 73.4 °F 39.2 °F 29% 29.89 in 10.0 mi Calm Calm - N/A   Clear
3:15 AM 73.4 °F 37.4 °F 27% 29.89 in 10.0 mi Calm Calm - N/A   Clear
3:35 AM 73.4 °F 39.2 °F 29% 29.89 in 10.0 mi Calm Calm - N/A   Clear
3:55 AM 73.4 °F 41.0 °F 31% 29.89 in 10.0 mi Calm Calm - N/A   Clear
4:15 AM 73.4 °F 41.0 °F 31% 29.89 in 10.0 mi Calm Calm - N/A   Clear
4:35 AM 73.4 °F 41.0 °F 31% 29.90 in 10.0 mi Calm Calm - N/A   Clear
4:55 AM 73.4 °F 41.0 °F 31% 29.90 in 10.0 mi Calm Calm - N/A   Clear
5:15 AM 73.4 °F 37.4 °F 27% 29.91 in 10.0 mi ENE 5.8 mph - N/A   Clear
5:35 AM 73.4 °F 39.2 °F 29% 29.92 in 10.0 mi North 3.5 mph - N/A   Clear
5:55 AM 71.6 °F 39.2 °F 31% 29.92 in 10.0 mi Calm Calm - N/A   Clear
6:15 AM 73.4 °F 35.6 °F 25% 29.93 in 10.0 mi NNE 4.6 mph - N/A   Clear
6:35 AM 75.2 °F 37.4 °F 25% 29.93 in 10.0 mi Calm Calm - N/A   Clear
6:55 AM 77.0 °F 37.4 °F 24% 29.94 in 10.0 mi Calm Calm - N/A   Clear
7:15 AM 82.4 °F 30.2 °F 15% 29.95 in 10.0 mi Calm Calm - N/A   Clear
7:35 AM 84.2 °F 28.4 °F 13% 29.96 in 10.0 mi WSW 3.5 mph - N/A   Clear
7:55 AM 84.2 °F 28.4 °F 13% 29.96 in 10.0 mi Calm Calm - N/A   Clear
8:15 AM 86.0 °F 28.4 °F 12% 29.97 in 10.0 mi Calm Calm - N/A   Clear
8:35 AM 86.0 °F 28.4 °F 12% 29.97 in 10.0 mi Calm Calm - N/A   Clear
8:55 AM 89.6 °F 28.4 °F 11% 29.97 in 10.0 mi SE 5.8 mph - N/A   Clear
9:15 AM 91.4 °F 32.0 °F 12% 29.97 in 10.0 mi SSE 11.5 mph - N/A   Clear
9:35 AM 91.4 °F 30.2 °F 11% 29.97 in 10.0 mi SE 12.7 mph - N/A   Clear
9:55 AM 93.2 °F 26.6 °F 9% 29.97 in 10.0 mi SSE 12.7 mph - N/A   Clear
10:15 AM 93.2 °F 30.2 °F 11% 29.97 in 10.0 mi South 13.8 mph 20.7 mph N/A   Clear
10:35 AM 93.2 °F 32.0 °F 11% 29.97 in 10.0 mi SE 13.8 mph 20.7 mph N/A   Clear
10:55 AM 95.0 °F 35.6 °F 12% 29.97 in 10.0 mi SSE 18.4 mph - N/A   Clear
11:15 AM 95.0 °F 33.8 °F 12% 29.97 in 10.0 mi ESE 13.8 mph 20.7 mph N/A   Clear
11:35 AM 95.0 °F 33.8 °F 12% 29.96 in 10.0 mi SE 13.8 mph 23.0 mph N/A   Clear
11:55 AM 96.8 °F 32.0 °F 10% 29.96 in 10.0 mi SE 11.5 mph 21.9 mph N/A   Clear
12:15 PM 96.8 °F 32.0 °F 10% 29.95 in 10.0 mi SE 17.3 mph 21.9 mph N/A   Clear
12:35 PM 98.6 °F 28.4 °F 8% 29.95 in 10.0 mi SSE 12.7 mph 23.0 mph N/A   Clear
12:55 PM 98.6 °F 30.2 °F 9% 29.94 in 10.0 mi SE 15.0 mph 21.9 mph N/A   Clear
1:15 PM 100.4 °F 30.2 °F 9% 29.94 in 10.0 mi SSE 17.3 mph 25.3 mph N/A   Clear
1:35 PM 100.4 °F 30.2 °F 9% 29.93 in 10.0 mi SSE 18.4 mph 27.6 mph N/A   Clear
1:55 PM 100.4 °F 32.0 °F 9% 29.92 in 10.0 mi SSE 20.7 mph 27.6 mph N/A   Clear
2:15 PM 100.4 °F 32.0 °F 9% 29.92 in 10.0 mi SSE 19.6 mph 26.5 mph N/A   Clear
2:35 PM 100.4 °F 32.0 °F 9% 29.91 in 10.0 mi SE 15.0 mph 28.8 mph N/A   Clear
2:55 PM 100.4 °F 32.0 °F 9% 29.90 in 10.0 mi South 19.6 mph 26.5 mph N/A   Clear
3:15 PM 102.2 °F 32.0 °F 9% 29.89 in 10.0 mi SSE 16.1 mph 25.3 mph N/A   Clear
3:35 PM 102.2 °F 32.0 °F 9% 29.89 in 10.0 mi SE 19.6 mph 26.5 mph N/A   Clear
3:55 PM 102.2 °F 32.0 °F 9% 29.88 in 10.0 mi SE 20.7 mph 24.2 mph N/A   Clear
4:15 PM 102.2 °F 32.0 °F 9% 29.88 in 10.0 mi SSE 21.9 mph 27.6 mph N/A   Clear
4:35 PM 102.2 °F 32.0 °F 9% 29.88 in 10.0 mi SSE 20.7 mph 27.6 mph N/A   Clear
4:55 PM 100.4 °F 30.2 °F 9% 29.87 in 10.0 mi SSE 16.1 mph 27.6 mph N/A   Clear
5:15 PM 100.4 °F 30.2 °F 9% 29.87 in 10.0 mi SSE 16.1 mph - N/A   Clear
5:35 PM 100.4 °F 28.4 °F 8% 29.86 in 10.0 mi SE 20.7 mph - N/A   Clear
5:55 PM 100.4 °F 28.4 °F 8% 29.86 in 10.0 mi SSE 19.6 mph 25.3 mph N/A   Clear
6:15 PM 100.4 °F 26.6 °F 7% 29.86 in 10.0 mi SSE 18.4 mph 24.2 mph N/A   Clear
6:35 PM 98.6 °F 26.6 °F 8% 29.86 in 10.0 mi SSE 16.1 mph - N/A   Clear
6:55 PM 98.6 °F 24.8 °F 7% 29.86 in 10.0 mi SSE 16.1 mph 21.9 mph N/A   Clear
7:15 PM 96.8 °F 24.8 °F 8% 29.86 in 10.0 mi SSE 18.4 mph - N/A   Clear
7:35 PM 96.8 °F 24.8 °F 8% 29.87 in 10.0 mi SSE 11.5 mph 18.4 mph N/A   Clear
7:55 PM 95.0 °F 24.8 °F 8% 29.87 in 10.0 mi SSE 12.7 mph - N/A   Clear
8:15 PM 95.0 °F 24.8 °F 8% 29.88 in 10.0 mi SSE 12.7 mph - N/A   Clear
8:35 PM 93.2 °F 24.8 °F 9% 29.88 in 10.0 mi SSE 9.2 mph - N/A   Clear
8:55 PM 93.2 °F 26.6 °F 9% 29.90 in 10.0 mi SSE 8.1 mph - N/A   Clear
9:15 PM 91.4 °F 26.6 °F 10% 29.90 in 10.0 mi WNW 4.6 mph - N/A   Clear
9:35 PM 91.4 °F 26.6 °F 10% 29.91 in 10.0 mi SW 8.1 mph - N/A   Clear
9:55 PM 89.6 °F 24.8 °F 10% 29.91 in 10.0 mi WSW 3.5 mph - N/A   Clear
10:15 PM 84.2 °F 35.6 °F 18% 29.91 in 10.0 mi Calm Calm - N/A   Clear
10:35 PM 84.2 °F 35.6 °F 18% 29.92 in 10.0 mi Calm Calm - N/A   Clear
10:55 PM 84.2 °F 32.0 °F 15% 29.92 in 10.0 mi Calm Calm - N/A   Clear
11:15 PM 80.6 °F 37.4 °F 21% 29.92 in 10.0 mi Calm Calm - N/A   Clear
11:35 PM 80.6 °F 37.4 °F 21% 29.92 in 10.0 mi Calm Calm - N/A   Clear
11:55 PM 80.6 °F 33.8 °F 18% 29.92 in 10.0 mi Calm Calm - N/A   Clear